[[{"header":{"parameterUnit":"m.s-1","parameterCategory":2,"la1":30.2991,"la2":30.254,"lo1":-89.0895,"lo2":-89.0444,"dy":0.0017,"dx":0.0017,"nx":28,"ny":28,"refTime":"2024-08-09T09:00:00:Z","depth":"0","parameterNumber":2,"parameterNumberName":"U-component_of_CURRENTS"},"data":[0,0,0,0,0,0,0,0,0,0,0,0,0,0,0,0,0,0,0,0,0,0,0,0,0,0,0,0,0,0,0,0,0,0,0,0,0,0,0,0,0,0,0,0,0,0,0,0,0,0,0,0,0,0,0,0,0,0,0.1578,0.1577,0,0.1452,0.145,0.1449,0.133,0.1329,0.1327,0.1326,0.1301,0.1302,0.1302,0,0,0,0,0,0,0,0,0,0,0,0,0,0.1723,0.1721,0.1578,0.1577,0.1575,0.1452,0.145,0.1449,0.133,0.1329,0.1327,0.1325,0.1301,0.1301,0.1302,0,0,0,0,0,0,0,0,0,0,0,0,0,0.1633,0.172,0.1578,0.1503,0.1495,0.1453,0.145,0.1448,0.1331,0.1328,0.1326,0.1325,0.1301,0.1301,0.1302,0.1348,0,0,0.1305,0.1305,0,0,0,0,0,0,0,0,0.1639,0.1628,0.1515,0.1508,0.1499,0.1406,0.1492,0.142,0.1331,0.1391,0.1326,0.1324,0.1348,0.1345,0.1322,0.1347,0.1346,0.1305,0.1306,0.1306,0.1306,0,0,0,0,0,0,0,0.1645,0.1633,0.1527,0.1514,0.1504,0.1477,0.1462,0.1477,0.1383,0.1386,0.1377,0.1366,0.1344,0.1321,0.1321,0.1345,0.1305,0.1306,0.1306,0.1307,0.1495,0.1499,0,0,0,0,0,0,0.1665,0.1639,0.1531,0.1523,0.1567,0.1476,0.1459,0.1437,0.138,0.1369,0.1368,0.1361,0.1321,0.132,0.132,0.144,0.1306,0.1307,0.1307,0.149,0.1496,0.15,0,0,0,0,0,0,0.1669,0.1657,0.1536,0.158,0.1563,0.1476,0.1452,0.1435,0.1414,0.1366,0.1356,0.1364,0.1319,0.1318,0.1347,0.1436,0.1307,0.1308,0.1485,0.1492,0.1498,0.1638,0,0,0,0,0,0,0.1673,0.1658,0.1667,0.1581,0.1561,0.1542,0.1453,0.1434,0.1411,0.1401,0.1361,0.1355,0.1317,0.1346,0.1348,0.1435,0.1309,0.1479,0.1488,0.1496,0.1628,0.1649,0.1667,0,0,0,0,0,0.1679,0.1703,0.1668,0.1656,0.157,0.1544,0.1533,0.1463,0.1414,0.1431,0.1393,0.1356,0.1402,0.1349,0.135,0.144,0.1475,0.1486,0.1495,0.1619,0.1645,0.1666,0,0,0,0,0,0,0.179,0.169,0.1651,0.1648,0.1613,0.1525,0.1537,0.1481,0.146,0.145,0.1391,0.1386,0.145,0.1433,0.1377,0.1525,0.1443,0.1454,0.1538,0.1561,0.158,0.1596,0.1309,0,0,0,0,0,0.1816,0.1798,0.1715,0.1725,0.1706,0.1624,0.1608,0.1558,0.1518,0.1502,0.1473,0.1468,0.1496,0.1513,0.1524,0.1598,0.1586,0.1668,0.1687,0.1703,0.1722,0.1775,0.18,0.1533,0.1533,0.1533,0,0,0.1863,0.1812,0.1802,0.1747,0.1707,0.1709,0.161,0.1598,0.1614,0.1512,0.1543,0.1528,0.1529,0.1604,0.1636,0.1598,0.1778,0.1716,0.173,0.1739,0.1788,0.1813,0.1836,0.154,0.1539,0.1538,0,0,0.1951,0.1903,0.1911,0.1885,0.1834,0.1793,0.1797,0.1723,0.1708,0.1728,0.1677,0.1717,0.1731,0.1763,0.1779,0.1925,0.1872,0.1936,0.2053,0.2105,0.2126,0.2145,0.217,0.219,0.1954,0.1955,0.1955,0,0.2015,0.1995,0.1924,0.1929,0.1918,0.1839,0.1858,0.1852,0.1803,0.1809,0.1765,0.1813,0.182,0.1925,0.1979,0.1972,0.1966,0.1954,0.2127,0.2145,0.2162,0.2184,0.2204,0.1962,0.1962,0.1961,0.196,0,0.2093,0.2081,0.2095,0.2064,0.2063,0.2069,0.2036,0.2046,0.2012,0.1989,0.2056,0.2055,0.2077,0.2117,0.2091,0.2234,0.218,0.2133,0.2057,0.2197,0.2211,0.223,0.1974,0.1971,0.1969,0.1967,0,0,0.2189,0.2151,0.215,0.2135,0.212,0.2109,0.2178,0.2189,0.2198,0.2217,0.2243,0.2346,0.231,0.2331,0.232,0.2389,0.2517,0.2321,0.232,0.2329,0.2608,0.2549,0.2561,0.2481,0.2485,0.2489,0.2572,0,0.2259,0.2273,0.2254,0.2285,0.2274,0.2249,0.2302,0.2315,0.231,0.2325,0.2374,0.2392,0.2405,0.2395,0.2488,0.2478,0.257,0.2497,0.2488,0.2488,0.2404,0.2584,0.2472,0.2535,0.2589,0.2592,0.2594,0,0.231,0.2304,0.2333,0.232,0.2318,0.2344,0.2359,0.2395,0.2434,0.243,0.2487,0.2469,0.259,0.2548,0.269,0.2628,0.2659,0.2666,0.2668,0.2576,0.2464,0.2407,0.2565,0.2412,0.2621,0.2619,0.2617,0,0.2329,0.2346,0.2359,0.2357,0.2358,0.2375,0.2385,0.2415,0.2424,0.2472,0.2459,0.2582,0.2591,0.269,0.2727,0.2703,0.2837,0.2794,0.279,0.2783,0.2672,0.2649,0.2666,0.2932,0.2932,0.2932,0.2932,0,0.2359,0.2358,0.2354,0.2346,0.2357,0.2367,0.238,0.2401,0.2428,0.243,0.2495,0.2505,0.2622,0.2686,0.2754,0.2829,0.2872,0.2857,0.2827,0.2719,0.27,0.2543,0.2501,0.2935,0.2934,0.2934,0.2933,0,0.2333,0.2345,0.2338,0.2348,0.2346,0.2338,0.2337,0.2337,0.2375,0.2372,0.2382,0.2459,0.2541,0.265,0.2772,0.2829,0.2818,0.2926,0.2781,0.2735,0.2588,0.2559,0.2529,0.2452,0.2958,0.2958,0.2957,0,0.2298,0.2296,0.2306,0.229,0.228,0.2271,0.2258,0.2297,0.2289,0.2327,0.2318,0.2394,0.2432,0.2604,0.2727,0.2864,0.2766,0.282,0.2793,0.2612,0.2557,0.2462,0.2393,0.2702,0.27,0.2698,0.2696,0,0.2223,0.224,0.224,0.2211,0.2191,0.2177,0.216,0.2153,0.2188,0.2192,0.2198,0.223,0.2387,0.2458,0.263,0.2716,0.2645,0.2781,0.2641,0.2429,0.2281,0.2177,0.259,0.2678,0.2679,0.2681,0.2682,0.2682,0.2155,0.214,0.2143,0.2114,0.2093,0.2064,0.203,0.2029,0.2015,0.1995,0.2068,0.2077,0.2179,0.241,0.249,0.2492,0.2531,0.2419,0.2421,0.2356,0.2225,0.2595,0.261,0.2611,0.2612,0.2613,0.2614,0,0.2052,0.2054,0.2029,0.1999,0.1948,0.1973,0.1942,0.19,0.1853,0.1874,0.1874,0.1889,0.1945,0.2058,0.2122,0.2089,0.2076,0.204,0.1873,0.1843,0.2208,0.2134,0.1984,0.1984,0.1984,0.1984,0.1984,0.1985,0.1995,0.1954,0.1955,0.1855,0.1831,0.175,0.1725,0.1683,0.1678,0.1611,0.1587,0.1612,0.1631,0.1639,0.1604,0.1652,0.1541,0.1534,0.1523,0.1745,0.1778,0.181,0.1726,0.1494,0.1493,0.1053,0.105,0.1047]},{"header":{"parameterUnit":"m.s-1","parameterCategory":2,"la1":30.2991,"la2":30.254,"lo1":-89.0895,"lo2":-89.0444,"dy":0.0017,"dx":0.0017,"nx":28,"ny":28,"refTime":"2024-08-09T09:00:00:Z","depth":"0","parameterNumber":3,"parameterNumberName":"V-component_of_CURRENTS"},"data":[0,0,0,0,0,0,0,0,0,0,0,0,0,0,0,0,0,0,0,0,0,0,0,0,0,0,0,0,0,0,0,0,0,0,0,0,0,0,0,0,0,0,0,0,0,0,0,0,0,0,0,0,0,0,0,0,0,0,0.0005,0.0006,0,0.0005,0.0005,0.0005,-0.0034,-0.0035,-0.0036,-0.0037,-0.0093,-0.0093,-0.0094,0,0,0,0,0,0,0,0,0,0,0,0,0,0.005,0.0049,0.0005,0.0006,0.0006,0.0005,0.0005,0.0005,-0.0034,-0.0035,-0.0036,-0.0037,-0.0093,-0.0093,-0.0094,0,0,0,0,0,0,0,0,0,0,0,0,0,0.0038,0.0049,0.0005,-0.0013,-0.0015,0.0005,0.0005,0.0005,-0.0034,-0.0035,-0.0037,-0.0038,-0.0092,-0.0093,-0.0094,-0.007,0,0,-0.0097,-0.0097,0,0,0,0,0,0,0,0,0.0038,0.0036,-0.0011,-0.0012,-0.0014,-0.0016,0.0,-0.0023,-0.0033,-0.0027,-0.0037,-0.0039,-0.0071,-0.0073,-0.007,-0.0073,-0.0075,-0.0097,-0.0097,-0.0098,-0.0098,0,0,0,0,0,0,0,0.0039,0.0036,0.0005,-0.0011,-0.0012,0.0005,0.0001,-0.0004,-0.0042,-0.0028,-0.0031,-0.0029,-0.0072,-0.0069,-0.0072,-0.0076,-0.0097,-0.0098,-0.0098,-0.0099,-0.0026,-0.0023,0,0,0,0,0,0,0.0038,0.0037,0.0005,0.0005,0.001,0.0005,0.0,-0.0014,-0.0041,-0.0046,-0.0028,-0.0031,-0.0067,-0.0071,-0.0074,-0.0034,-0.0098,-0.0099,-0.0099,-0.0028,-0.0025,-0.0022,0,0,0,0,0,0,0.0038,0.0034,0.0005,0.0022,0.002,0.0005,-0.001,-0.0013,-0.0014,-0.004,-0.0047,-0.0026,-0.0068,-0.0073,-0.0078,-0.0037,-0.0099,-0.01,-0.0031,-0.0027,-0.0024,0.0038,0,0,0,0,0,0,0.0039,0.0034,0.0025,0.0022,0.0019,0.0015,-0.0009,-0.0012,-0.001,-0.0014,-0.0041,-0.0047,-0.007,-0.0077,-0.0079,-0.0039,-0.0101,-0.0034,-0.0029,-0.0025,0.0033,0.0043,0.0052,0,0,0,0,0,0.0041,0.0037,0.0024,0.0021,0.0005,0.0015,0.0016,0.0001,-0.0009,-0.0005,-0.0022,-0.0047,-0.0048,-0.0076,-0.008,-0.0039,-0.0036,-0.0031,-0.0025,0.0029,0.0041,0.0052,0,0,0,0,0,0,0.0056,0.0032,0.0019,0.0007,0.001,0.0009,0.0013,0.0008,0.0001,-0.0007,-0.0033,-0.004,-0.0023,-0.0035,-0.0065,0.0001,-0.0038,-0.0033,0.0004,0.0016,0.0026,0.0051,-0.0101,0,0,0,0,0,0.0055,0.0039,0.0031,0.0024,0.0025,0.0022,0.0025,0.0016,0.0011,0.0006,-0.0007,-0.0009,0.0003,0.0001,0.0002,0.0027,0.0017,0.006,0.007,0.0078,0.0101,0.0111,0.0123,-0.0004,-0.0004,-0.0004,0,0,0.006,0.0046,0.0037,0.0026,0.0026,0.0043,0.002,0.0026,0.0049,0.0002,0.0026,0.0017,0.0017,0.0046,0.0055,0.0036,0.0109,0.0085,0.0092,0.011,0.0118,0.013,0.0141,-0.0001,-0.0001,-0.0002,0,0,0.0075,0.0051,0.0048,0.0052,0.0051,0.0057,0.0062,0.0064,0.0071,0.0091,0.0076,0.0094,0.0098,0.0117,0.0127,0.0197,0.0158,0.0199,0.0267,0.0277,0.0287,0.0295,0.0291,0.0298,0.0206,0.0206,0.0206,0,0.0077,0.0075,0.0055,0.0063,0.0075,0.0068,0.0089,0.0107,0.0111,0.0132,0.0105,0.0155,0.0145,0.0208,0.0234,0.022,0.0206,0.0214,0.0287,0.0295,0.0303,0.0296,0.0304,0.021,0.021,0.0209,0.0209,0,0.0101,0.0099,0.0105,0.011,0.0123,0.0139,0.0159,0.0182,0.0192,0.021,0.0263,0.026,0.029,0.0302,0.0286,0.0356,0.032,0.0291,0.025,0.0319,0.0308,0.0315,0.0215,0.0214,0.0213,0.0212,0,0,0.009,0.0113,0.0114,0.0129,0.0147,0.0164,0.0215,0.0263,0.0305,0.0326,0.0383,0.0426,0.0422,0.0436,0.0427,0.0448,0.0484,0.0396,0.0395,0.038,0.0489,0.0475,0.048,0.0451,0.0453,0.0455,0.0455,0,0.011,0.0144,0.0152,0.0196,0.0215,0.0234,0.0287,0.033,0.0363,0.0415,0.045,0.0489,0.0475,0.0483,0.051,0.0487,0.0506,0.0486,0.0437,0.0436,0.0404,0.049,0.0514,0.0518,0.0462,0.0463,0.0464,0,0.0122,0.0146,0.019,0.024,0.0252,0.0284,0.0359,0.0402,0.0478,0.0501,0.0556,0.0565,0.0625,0.0582,0.0612,0.059,0.0558,0.0538,0.0536,0.0511,0.0436,0.0443,0.0532,0.0517,0.0474,0.0473,0.0472,0,0.0122,0.0169,0.021,0.0224,0.0283,0.0317,0.0357,0.0428,0.0472,0.0549,0.0577,0.0644,0.0664,0.066,0.0638,0.0614,0.0647,0.0597,0.0562,0.0558,0.0569,0.0564,0.0632,0.062,0.062,0.062,0.062,0,0.013,0.0159,0.0214,0.0232,0.029,0.0327,0.0393,0.0441,0.0512,0.0569,0.0614,0.0665,0.068,0.0699,0.0667,0.0652,0.067,0.0604,0.0575,0.0591,0.0588,0.0565,0.0521,0.062,0.062,0.062,0.062,0,0.0114,0.0149,0.019,0.0259,0.0282,0.032,0.0395,0.0448,0.0509,0.058,0.0602,0.0682,0.0715,0.0723,0.0716,0.0684,0.0664,0.0646,0.0662,0.0636,0.058,0.0538,0.0554,0.0617,0.0611,0.0611,0.0611,0,0.0116,0.0134,0.0196,0.0224,0.0252,0.0314,0.0361,0.0434,0.0485,0.0591,0.0625,0.0689,0.0747,0.0755,0.0728,0.0697,0.0671,0.0667,0.064,0.0617,0.0547,0.0516,0.0568,0.0669,0.067,0.067,0.067,0,0.0116,0.0129,0.0167,0.0217,0.0263,0.0322,0.039,0.0428,0.052,0.0584,0.0673,0.0727,0.0763,0.0782,0.075,0.0716,0.0677,0.067,0.0655,0.0625,0.059,0.0622,0.0611,0.0673,0.0673,0.0673,0.0673,0.0673,0.0116,0.0135,0.0178,0.0229,0.0279,0.034,0.039,0.0464,0.0547,0.0667,0.07,0.0806,0.0825,0.0806,0.0758,0.0697,0.0684,0.0663,0.0618,0.0595,0.0655,0.0649,0.0667,0.0667,0.0667,0.0666,0.0666,0,0.0125,0.0151,0.0195,0.0259,0.0316,0.0339,0.0426,0.0487,0.0584,0.0698,0.0786,0.0881,0.0873,0.0843,0.075,0.0669,0.0682,0.063,0.0611,0.0676,0.0684,0.0688,0.0702,0.0702,0.0702,0.0702,0.0702,0.0702,0.0134,0.0169,0.0196,0.0289,0.0335,0.0414,0.0464,0.0553,0.0649,0.0801,0.0902,0.0978,0.0975,0.076,0.0645,0.0622,0.0626,0.0558,0.0597,0.0587,0.0587,0.0588,0.0586,0.0579,0.0578,0.0658,0.0658,0.0658]}],[{"header":{"parameterUnit":"m.s-1","parameterCategory":2,"la1":30.2991,"la2":30.254,"lo1":-89.0895,"lo2":-89.0444,"dy":0.0017,"dx":0.0017,"nx":28,"ny":28,"refTime":"2024-08-09T09:00:00:Z","depth":"2","parameterNumber":2,"parameterNumberName":"U-component_of_CURRENTS"},"data":[0,0,0,0,0,0,0,0,0,0,0,0,0,0,0,0,0,0,0,0,0,0,0,0,0,0,0,0,0,0,0,0,0,0,0,0,0,0,0,0,0,0,0,0,0,0,0,0,0,0,0,0,0,0,0,0,0,0,0.0181,0.0181,0,0.0233,0.0233,0.0233,0.0267,0.0268,0.0268,0.0269,0.0194,0.0191,0.0189,0,0,0,0,0,0,0,0,0,0,0,0,0,0.0101,0.0102,0.018,0.0181,0.0182,0.0233,0.0233,0.0233,0.0267,0.0268,0.0269,0.0269,0.0194,0.0191,0.0188,0,0,0,0,0,0,0,0,0,0,0,0,0,0.0139,0.0103,0.018,0.0208,0.0212,0.0233,0.0233,0.0233,0.0267,0.0268,0.0269,0.027,0.0195,0.0192,0.0188,0.0147,0,0,0.0176,0.0175,0,0,0,0,0,0,0,0,0.0137,0.0141,0.0203,0.0206,0.021,0.0248,0.0178,0.02,0.0267,0.0242,0.0269,0.027,0.0202,0.0198,0.0202,0.0143,0.014,0.0176,0.0174,0.0172,0.0171,0,0,0,0,0,0,0,0.0134,0.0139,0.0197,0.0204,0.0209,0.0216,0.0222,0.0182,0.0211,0.0244,0.0248,0.0259,0.0202,0.0205,0.02,0.0139,0.0176,0.0173,0.017,0.0169,0.0112,0.0113,0,0,0,0,0,0,0.0135,0.0137,0.0196,0.0199,0.0179,0.0217,0.0223,0.0232,0.0214,0.0214,0.0259,0.0261,0.0211,0.0204,0.0197,0.0191,0.0172,0.0168,0.0166,0.0112,0.0113,0.0114,0,0,0,0,0,0,0.0133,0.014,0.0193,0.0172,0.018,0.0218,0.0227,0.0232,0.0274,0.0227,0.0225,0.03,0.0212,0.0202,0.0183,0.0187,0.0167,0.0163,0.0111,0.0112,0.0113,0.0151,0,0,0,0,0,0,0.0131,0.0139,0.0123,0.0172,0.0182,0.0213,0.0226,0.0233,0.028,0.0284,0.026,0.0253,0.0212,0.0189,0.0179,0.0181,0.016,0.011,0.0111,0.0113,0.0149,0.0153,0.0157,0,0,0,0,0,0.0128,0.0077,0.0122,0.0128,0.0166,0.0214,0.0219,0.0245,0.0281,0.0289,0.0281,0.0256,0.0192,0.0186,0.0174,0.0176,0.0109,0.0111,0.0113,0.0147,0.0152,0.0157,0,0,0,0,0,0,0.0028,0.0079,0.0127,0.0097,0.017,0.0222,0.0207,0.027,0.0276,0.0279,0.0256,0.0245,0.0225,0.0204,0.0199,0.0168,0.015,0.0149,0.018,0.0185,0.0189,0.0229,0.0157,0,0,0,0,0,0.0008,-0.0004,0.0077,0.0068,0.0092,0.0174,0.0193,0.0243,0.0267,0.0275,0.0289,0.0271,0.0218,0.0208,0.0168,0.0152,0.0132,0.0151,0.0156,0.0159,0.0186,0.014,0.0142,0.0119,0.0119,0.0119,0,0,-0.002,-0.0,0.0,0.0049,0.0095,0.0125,0.0186,0.0232,0.0267,0.0258,0.0296,0.0282,0.0216,0.0189,0.0181,0.0177,0.0157,0.0162,0.0165,0.019,0.0142,0.0144,0.0146,0.0121,0.012,0.012,0,0,-0.0061,-0.0066,-0.0063,0.0008,0.0091,0.0091,0.0125,0.0229,0.0269,0.0316,0.0299,0.0305,0.0278,0.0233,0.0193,0.0203,0.0173,0.0202,0.026,0.0214,0.0215,0.0216,0.0196,0.0195,0.0213,0.0213,0.0213,0,-0.0083,-0.008,-0.005,0.001,0.0032,0.0086,0.012,0.0156,0.0259,0.0301,0.033,0.033,0.0288,0.0224,0.0242,0.021,0.0199,0.0238,0.0218,0.0219,0.0219,0.0198,0.0197,0.0215,0.0214,0.0214,0.0214,0,-0.0079,-0.0058,-0.0056,0.0002,0.0025,0.0051,0.0116,0.0174,0.0225,0.0295,0.0333,0.031,0.0326,0.0303,0.0276,0.0261,0.0257,0.0217,0.0203,0.0223,0.0201,0.0198,0.0218,0.0217,0.0216,0.0216,0,0,-0.0141,-0.008,-0.0056,-0.0021,0.0023,0.005,0.0072,0.0108,0.0161,0.0265,0.0325,0.0295,0.0371,0.0336,0.0315,0.0297,0.029,0.029,0.0286,0.0269,0.0221,0.0266,0.0267,0.0252,0.0251,0.0251,0.0205,0,-0.0138,-0.0085,-0.0066,-0.003,-0.0013,0.0038,0.0051,0.0123,0.0172,0.025,0.0276,0.031,0.0346,0.0372,0.0363,0.0298,0.0287,0.0309,0.0208,0.0206,0.024,0.0267,0.0202,0.0161,0.0203,0.0202,0.0202,0,-0.0102,-0.0102,-0.0069,-0.004,-0.0025,0.0005,0.0029,0.007,0.0163,0.0234,0.0313,0.0353,0.037,0.0382,0.0338,0.036,0.0323,0.0275,0.027,0.0304,0.0247,0.0147,0.0154,0.0197,0.0198,0.0198,0.0198,0,-0.014,-0.009,-0.0108,-0.0068,-0.0034,0.001,0.0012,0.0104,0.0149,0.025,0.0307,0.0345,0.0373,0.0341,0.0336,0.0333,0.0268,0.022,0.0221,0.0223,0.0147,0.0144,0.018,0.018,0.018,0.018,0.018,0,-0.0153,-0.0132,-0.0098,-0.0066,-0.0054,0.0005,0.0052,0.0112,0.018,0.0233,0.0321,0.036,0.0372,0.0364,0.033,0.0303,0.0267,0.0256,0.022,0.0161,0.016,0.0174,0.0174,0.0178,0.0179,0.0179,0.0179,0,-0.0142,-0.0127,-0.0105,-0.0069,-0.0042,0.0,0.0077,0.0117,0.0194,0.026,0.0297,0.037,0.04,0.0397,0.0328,0.03,0.0242,0.0228,0.0193,0.0157,0.0226,0.0228,0.0219,0.0221,0.0222,0.0223,0.0224,0,-0.0142,-0.013,-0.008,-0.0052,-0.0019,0.0042,0.0085,0.0146,0.0177,0.0266,0.0277,0.0356,0.0417,0.0373,0.0332,0.0289,0.0285,0.0191,0.0176,0.0268,0.0232,0.0233,0.0234,0.0075,0.0074,0.0074,0.0073,0,-0.0165,-0.0125,-0.0124,-0.0054,0.0004,0.0044,0.0105,0.0123,0.0188,0.0244,0.03,0.0354,0.038,0.0352,0.0336,0.0274,0.0204,0.0186,0.0247,0.0103,0.0135,0.0099,0.0103,0.007,0.007,0.007,0.0071,0.0071,-0.0175,-0.0174,-0.0145,-0.0064,-0.0011,0.0047,0.0079,0.0118,0.0167,0.0241,0.0269,0.0321,0.0252,0.0236,0.0217,0.0218,0.0227,0.0153,0.0151,0.0151,0.0171,0.0205,0.0158,0.0159,0.0159,0.016,0.0161,0,-0.0212,-0.0186,-0.0155,-0.0091,-0.0045,0.0031,0.0082,0.0098,0.0156,0.0203,0.0265,0.0152,0.0143,0.0147,0.016,0.0139,0.009,0.0114,0.0047,0.0049,0.0052,0.0065,0.0025,0.0025,0.0026,0.0026,0,0,-0.0237,-0.0236,-0.0212,-0.0133,-0.0059,0.0006,0.0055,0.0103,0.0122,0.0152,0.0167,0.0111,0.0094,0.0025,0.001,0.0071,0.0053,0.004,0.0137,0.0059,0.0063,0.0053,0.0075,0,0,0,0,0]},{"header":{"parameterUnit":"m.s-1","parameterCategory":2,"la1":30.2991,"la2":30.254,"lo1":-89.0895,"lo2":-89.0444,"dy":0.0017,"dx":0.0017,"nx":28,"ny":28,"refTime":"2024-08-09T09:00:00:Z","depth":"2","parameterNumber":3,"parameterNumberName":"V-component_of_CURRENTS"},"data":[0,0,0,0,0,0,0,0,0,0,0,0,0,0,0,0,0,0,0,0,0,0,0,0,0,0,0,0,0,0,0,0,0,0,0,0,0,0,0,0,0,0,0,0,0,0,0,0,0,0,0,0,0,0,0,0,0,0,-0.0295,-0.0296,0,-0.0311,-0.0311,-0.0311,-0.0304,-0.0304,-0.0304,-0.0304,-0.0313,-0.0313,-0.0313,0,0,0,0,0,0,0,0,0,0,0,0,0,-0.0222,-0.0223,-0.0295,-0.0296,-0.0297,-0.0311,-0.0311,-0.0311,-0.0304,-0.0304,-0.0304,-0.0304,-0.0313,-0.0313,-0.0313,0,0,0,0,0,0,0,0,0,0,0,0,0,-0.0242,-0.0224,-0.0295,-0.0299,-0.03,-0.0311,-0.0311,-0.0311,-0.0304,-0.0304,-0.0304,-0.0304,-0.0313,-0.0313,-0.0313,-0.0311,0,0,-0.0314,-0.0314,0,0,0,0,0,0,0,0,-0.0241,-0.0244,-0.0298,-0.0299,-0.03,-0.0311,-0.0289,-0.0312,-0.0304,-0.0296,-0.0304,-0.0304,-0.0315,-0.0315,-0.031,-0.0312,-0.0312,-0.0314,-0.0314,-0.0314,-0.0314,0,0,0,0,0,0,0,-0.024,-0.0243,-0.0296,-0.0299,-0.03,-0.0288,-0.0291,-0.0293,-0.03,-0.0297,-0.0298,-0.0308,-0.0315,-0.031,-0.031,-0.0312,-0.0314,-0.0314,-0.0314,-0.0314,-0.0388,-0.039,0,0,0,0,0,0,-0.0251,-0.0242,-0.0296,-0.0297,-0.0277,-0.029,-0.0292,-0.0302,-0.03,-0.0302,-0.0308,-0.0308,-0.0309,-0.031,-0.0311,-0.0355,-0.0314,-0.0315,-0.0315,-0.0386,-0.0388,-0.039,0,0,0,0,0,0,-0.0249,-0.0256,-0.0295,-0.0274,-0.0279,-0.0292,-0.0302,-0.0303,-0.031,-0.031,-0.031,-0.0317,-0.0309,-0.031,-0.0343,-0.0353,-0.0315,-0.0315,-0.0384,-0.0387,-0.0389,-0.0413,0,0,0,0,0,0,-0.0247,-0.0255,-0.027,-0.0275,-0.0281,-0.0311,-0.0303,-0.0303,-0.0318,-0.0318,-0.0318,-0.0318,-0.031,-0.0343,-0.0343,-0.0353,-0.0315,-0.0382,-0.0385,-0.0388,-0.041,-0.0416,-0.0422,0,0,0,0,0,-0.0244,-0.0265,-0.0271,-0.0278,-0.03,-0.0312,-0.0313,-0.0318,-0.0319,-0.0324,-0.034,-0.0318,-0.0365,-0.0345,-0.0345,-0.0354,-0.038,-0.0384,-0.0388,-0.0407,-0.0415,-0.0422,0,0,0,0,0,0,-0.0249,-0.0267,-0.0273,-0.0301,-0.0311,-0.0313,-0.033,-0.0327,-0.0341,-0.0347,-0.0341,-0.0343,-0.0376,-0.0371,-0.0349,-0.0391,-0.0369,-0.0373,-0.0383,-0.0391,-0.0396,-0.038,-0.0315,0,0,0,0,0,-0.0257,-0.0267,-0.0288,-0.0307,-0.0323,-0.0327,-0.0336,-0.0335,-0.0348,-0.0353,-0.0356,-0.037,-0.039,-0.0396,-0.041,-0.0428,-0.0403,-0.0438,-0.0444,-0.0449,-0.0439,-0.0431,-0.0433,-0.0404,-0.0404,-0.0404,0,0,-0.026,-0.0275,-0.028,-0.0307,-0.0321,-0.0334,-0.0332,-0.035,-0.0356,-0.0353,-0.0375,-0.0392,-0.0404,-0.0431,-0.0444,-0.0427,-0.0444,-0.0454,-0.0458,-0.0445,-0.0435,-0.0437,-0.0439,-0.0407,-0.0406,-0.0406,0,0,-0.0267,-0.0295,-0.0305,-0.0316,-0.0342,-0.0348,-0.0357,-0.037,-0.038,-0.0407,-0.0411,-0.0444,-0.0464,-0.0474,-0.0482,-0.0532,-0.0481,-0.0534,-0.0538,-0.0531,-0.0532,-0.0533,-0.0495,-0.0492,-0.0529,-0.0529,-0.0529,0,-0.0277,-0.029,-0.031,-0.0324,-0.0336,-0.0357,-0.0367,-0.0382,-0.0398,-0.0404,-0.0423,-0.0468,-0.0486,-0.0508,-0.0531,-0.0541,-0.0512,-0.0505,-0.0535,-0.0535,-0.0536,-0.0496,-0.0493,-0.0531,-0.0531,-0.0531,-0.053,0,-0.0273,-0.0299,-0.0313,-0.0334,-0.0346,-0.0363,-0.0387,-0.0399,-0.0423,-0.0431,-0.0472,-0.0511,-0.0525,-0.0549,-0.0556,-0.0568,-0.0538,-0.0545,-0.0507,-0.0539,-0.0496,-0.0492,-0.0533,-0.0533,-0.0532,-0.0532,0,0,-0.0267,-0.0304,-0.031,-0.0318,-0.0352,-0.0356,-0.0381,-0.04,-0.0396,-0.0451,-0.0454,-0.0528,-0.0537,-0.0549,-0.0565,-0.0573,-0.0562,-0.0556,-0.0554,-0.0498,-0.051,-0.0437,-0.0425,-0.0563,-0.0563,-0.0563,-0.0474,0,-0.0266,-0.0286,-0.0303,-0.0319,-0.0337,-0.0356,-0.0362,-0.0376,-0.0402,-0.0411,-0.0473,-0.049,-0.054,-0.054,-0.0564,-0.0566,-0.0554,-0.0583,-0.0503,-0.05,-0.0416,-0.0419,-0.0425,-0.0342,-0.047,-0.0469,-0.0468,0,-0.0256,-0.0273,-0.029,-0.0303,-0.0311,-0.0316,-0.0316,-0.0323,-0.0345,-0.036,-0.04,-0.043,-0.0471,-0.0502,-0.0522,-0.0532,-0.0515,-0.052,-0.0516,-0.0433,-0.0419,-0.0335,-0.0329,-0.0461,-0.0462,-0.0462,-0.0463,0,-0.0226,-0.0261,-0.0271,-0.0278,-0.0297,-0.0298,-0.0302,-0.0309,-0.0297,-0.0319,-0.0306,-0.037,-0.0382,-0.0411,-0.0436,-0.0466,-0.0429,-0.047,-0.0382,-0.0375,-0.0357,-0.0349,-0.045,-0.045,-0.0451,-0.0451,-0.0451,0,-0.021,-0.022,-0.0259,-0.0262,-0.0254,-0.027,-0.025,-0.0253,-0.0243,-0.0215,-0.0274,-0.0262,-0.0357,-0.0356,-0.0393,-0.0363,-0.039,-0.0367,-0.0348,-0.0365,-0.0359,-0.0451,-0.0453,-0.0447,-0.0448,-0.0449,-0.0449,0,-0.0172,-0.0203,-0.0214,-0.0239,-0.0244,-0.0232,-0.0215,-0.0188,-0.0179,-0.0142,-0.014,-0.0168,-0.0175,-0.0232,-0.0256,-0.0275,-0.0273,-0.024,-0.0236,-0.0218,-0.0234,-0.0239,-0.0151,-0.0148,-0.0145,-0.0143,-0.0141,0,-0.0151,-0.0157,-0.019,-0.0187,-0.0203,-0.0192,-0.0172,-0.0163,-0.0126,-0.0081,-0.0053,-0.0045,-0.0033,-0.0034,-0.007,-0.0077,-0.0153,-0.0074,-0.0148,-0.0213,-0.0204,-0.0213,-0.022,-0.0134,-0.0132,-0.013,-0.0129,0,-0.011,-0.0129,-0.0135,-0.0134,-0.013,-0.0111,-0.0086,-0.005,-0.0018,0.0026,0.0083,0.01,0.0112,0.0076,0.0082,0.0064,-0.009,-0.0039,-0.0106,-0.0202,-0.0188,-0.0182,-0.0192,-0.0115,-0.0117,-0.0118,-0.0118,-0.0119,-0.0075,-0.0066,-0.0077,-0.0072,-0.0052,-0.0023,-0.0001,0.0049,0.0115,0.0206,0.0201,0.0227,0.0122,0.0133,0.0122,0.011,0.0088,0.0018,0.0009,-0.0001,-0.0008,0.0011,0.0121,0.0121,0.0121,0.0121,0.0121,0,-0.0037,-0.0033,-0.0009,0.0003,0.0047,0.0027,0.0073,0.0118,0.0203,0.0266,0.0339,0.0235,0.0228,0.0135,0.0154,0.0156,0.0117,0.012,0.0025,0.0013,0.0002,-0.0011,0.0121,0.0121,0.0121,0.0121,0,0,-0.0007,0.0005,0.0017,0.0089,0.0107,0.0146,0.0166,0.0249,0.0293,0.0339,0.0335,0.0354,0.0197,0.0161,0.013,0.0139,0.0089,0.015,0.0153,0.0035,0.0024,-0.0051,-0.0081,0,0,0,0,0]}],[{"header":{"parameterUnit":"m.s-1","parameterCategory":2,"la1":30.2991,"la2":30.254,"lo1":-89.0895,"lo2":-89.0444,"dy":0.0017,"dx":0.0017,"nx":28,"ny":28,"refTime":"2024-08-09T09:00:00:Z","depth":"4","parameterNumber":2,"parameterNumberName":"U-component_of_CURRENTS"},"data":[0,0,0,0,0,0,0,0,0,0,0,0,0,0,0,0,0,0,0,0,0,0,0,0,0,0,0,0,0,0,0,0,0,0,0,0,0,0,0,0,0,0,0,0,0,0,0,0,0,0,0,0,0,0,0,0,0,0,-0.0525,-0.0525,0,-0.0541,-0.0542,-0.0542,-0.0553,-0.0553,-0.0553,-0.0553,-0.0561,-0.0561,-0.0561,0,0,0,0,0,0,0,0,0,0,0,0,0,-0.0493,-0.0494,-0.0525,-0.0525,-0.0525,-0.0541,-0.0542,-0.0542,-0.0553,-0.0553,-0.0553,-0.0553,-0.0561,-0.0561,-0.0561,0,0,0,0,0,0,0,0,0,0,0,0,0,-0.0508,-0.0494,-0.0525,-0.0532,-0.0533,-0.0541,-0.0542,-0.0542,-0.0553,-0.0553,-0.0553,-0.0553,-0.0561,-0.0561,-0.0562,-0.0563,0,0,-0.0562,-0.0563,0,0,0,0,0,0,0,0,-0.0508,-0.051,-0.0531,-0.0532,-0.0533,-0.0545,-0.0534,-0.0548,-0.0553,-0.0546,-0.0553,-0.0553,-0.0554,-0.0555,-0.0559,-0.0563,-0.0563,-0.0562,-0.0563,-0.0563,-0.0563,0,0,0,0,0,0,0,-0.0506,-0.0509,-0.0532,-0.0531,-0.0532,-0.0531,-0.0534,-0.0536,-0.055,-0.0546,-0.0547,-0.0548,-0.0555,-0.0559,-0.0559,-0.0563,-0.0562,-0.0563,-0.0563,-0.0563,-0.0635,-0.0637,0,0,0,0,0,0,-0.0504,-0.0508,-0.0531,-0.0532,-0.0519,-0.0532,-0.0535,-0.0541,-0.055,-0.0551,-0.0548,-0.0549,-0.0558,-0.0559,-0.056,-0.0635,-0.0563,-0.0563,-0.0563,-0.0633,-0.0635,-0.0637,0,0,0,0,0,0,-0.0503,-0.0506,-0.0531,-0.052,-0.0523,-0.0532,-0.054,-0.0541,-0.0554,-0.0551,-0.0553,-0.056,-0.0558,-0.0559,-0.0572,-0.0632,-0.0563,-0.0563,-0.0631,-0.0634,-0.0636,-0.0738,0,0,0,0,0,0,-0.0503,-0.0506,-0.0512,-0.052,-0.0523,-0.0544,-0.054,-0.0542,-0.0554,-0.0555,-0.0562,-0.0562,-0.0558,-0.0571,-0.0572,-0.0631,-0.0564,-0.0629,-0.0632,-0.0636,-0.0732,-0.0743,-0.0753,0,0,0,0,0,-0.0501,-0.0512,-0.0513,-0.0516,-0.0531,-0.0544,-0.0546,-0.0553,-0.0555,-0.0564,-0.0568,-0.0562,-0.0594,-0.0572,-0.0573,-0.0634,-0.0627,-0.0632,-0.0635,-0.0727,-0.0741,-0.0753,0,0,0,0,0,0,-0.0499,-0.0514,-0.0515,-0.0529,-0.0538,-0.0546,-0.0558,-0.0559,-0.057,-0.0574,-0.057,-0.0571,-0.0601,-0.0599,-0.0575,-0.0664,-0.0616,-0.062,-0.0686,-0.0698,-0.0709,-0.0724,-0.0564,0,0,0,0,0,-0.0501,-0.0515,-0.0525,-0.0536,-0.0545,-0.0552,-0.0559,-0.0564,-0.0572,-0.0578,-0.0585,-0.0599,-0.0617,-0.064,-0.0639,-0.0688,-0.066,-0.0731,-0.0741,-0.075,-0.0763,-0.075,-0.0761,-0.065,-0.065,-0.065,0,0,-0.0502,-0.0512,-0.0519,-0.0536,-0.0547,-0.0564,-0.0558,-0.0574,-0.0594,-0.0576,-0.061,-0.0618,-0.0629,-0.0678,-0.0697,-0.0691,-0.077,-0.0755,-0.0763,-0.0771,-0.0756,-0.0766,-0.0776,-0.0653,-0.0652,-0.0652,0,0,-0.051,-0.0523,-0.0539,-0.0552,-0.057,-0.0576,-0.0584,-0.0601,-0.0618,-0.0643,-0.0645,-0.0691,-0.0708,-0.0752,-0.077,-0.0838,-0.0803,-0.0846,-0.0941,-0.0929,-0.0938,-0.0945,-0.0931,-0.0936,-0.0879,-0.0879,-0.0879,0,-0.0514,-0.053,-0.0544,-0.0564,-0.0578,-0.0585,-0.0605,-0.0625,-0.0644,-0.0675,-0.0662,-0.0739,-0.0749,-0.0841,-0.088,-0.0866,-0.0842,-0.0895,-0.0943,-0.0949,-0.0955,-0.0938,-0.0943,-0.0884,-0.0884,-0.0883,-0.0883,0,-0.0528,-0.0549,-0.0563,-0.0591,-0.0609,-0.0627,-0.0654,-0.068,-0.07,-0.0731,-0.0807,-0.0835,-0.0894,-0.0921,-0.0927,-0.1008,-0.0971,-0.0934,-0.091,-0.0972,-0.0951,-0.0954,-0.0892,-0.089,-0.0888,-0.0887,0,0,-0.0524,-0.0565,-0.0572,-0.0587,-0.0625,-0.0638,-0.0686,-0.0737,-0.0793,-0.0831,-0.091,-0.0984,-0.1023,-0.1047,-0.108,-0.1105,-0.114,-0.1061,-0.1057,-0.1046,-0.1109,-0.0983,-0.0973,-0.1104,-0.1105,-0.1105,-0.1079,0,-0.0534,-0.0567,-0.0591,-0.0626,-0.0646,-0.0679,-0.0728,-0.078,-0.084,-0.0918,-0.0986,-0.1057,-0.1066,-0.1117,-0.115,-0.1121,-0.1151,-0.115,-0.1051,-0.1048,-0.0927,-0.0973,-0.1109,-0.1081,-0.1082,-0.1082,-0.1082,0,-0.0541,-0.0563,-0.06,-0.065,-0.0666,-0.0699,-0.0788,-0.0842,-0.096,-0.1013,-0.1117,-0.1144,-0.1228,-0.1204,-0.1215,-0.1208,-0.1184,-0.1158,-0.1155,-0.1004,-0.0927,-0.1003,-0.1086,-0.1086,-0.1086,-0.1086,-0.1085,0,-0.0519,-0.0568,-0.0596,-0.0612,-0.0676,-0.0717,-0.0771,-0.0885,-0.0957,-0.1095,-0.114,-0.1231,-0.1257,-0.1248,-0.1207,-0.1207,-0.1176,-0.1154,-0.1027,-0.1017,-0.1093,-0.1085,-0.1164,-0.1164,-0.1164,-0.1164,-0.1164,0,-0.0514,-0.0537,-0.0594,-0.061,-0.0666,-0.0729,-0.0838,-0.0906,-0.1042,-0.1115,-0.1205,-0.1237,-0.126,-0.1239,-0.1217,-0.1116,-0.1175,-0.1048,-0.1003,-0.1137,-0.1135,-0.1095,-0.1087,-0.1163,-0.1163,-0.1164,-0.1164,0,-0.0488,-0.0522,-0.0553,-0.0624,-0.0658,-0.071,-0.0855,-0.092,-0.1058,-0.1151,-0.118,-0.1232,-0.1155,-0.1156,-0.1113,-0.109,-0.1031,-0.0989,-0.1138,-0.1099,-0.0886,-0.0884,-0.0843,-0.0838,-0.0834,-0.0831,-0.0828,0,-0.0476,-0.0492,-0.0555,-0.0572,-0.0611,-0.0714,-0.0768,-0.0922,-0.0972,-0.1112,-0.1098,-0.109,-0.1092,-0.0922,-0.0953,-0.0891,-0.088,-0.0894,-0.0906,-0.0893,-0.0854,-0.0858,-0.0862,-0.0822,-0.0821,-0.082,-0.0819,0,-0.0454,-0.0478,-0.0496,-0.0536,-0.0579,-0.0635,-0.0714,-0.0744,-0.0888,-0.1014,-0.096,-0.0947,-0.0855,-0.0796,-0.0753,-0.0726,-0.0911,-0.0853,-0.0861,-0.0872,-0.0867,-0.0833,-0.0841,-0.0805,-0.0807,-0.0808,-0.0809,0,-0.0433,-0.0434,-0.0457,-0.0488,-0.0521,-0.0512,-0.0581,-0.0589,-0.0664,-0.079,-0.076,-0.0759,-0.0798,-0.0709,-0.0678,-0.0623,-0.0611,-0.0638,-0.0657,-0.0673,-0.0633,-0.0602,-0.0424,0,0,0,0,0,-0.0409,-0.04,-0.041,-0.041,-0.0424,-0.0453,-0.0506,-0.0567,-0.0691,-0.0596,-0.0685,-0.059,-0.0547,-0.0556,-0.0452,-0.0607,-0.0621,-0.0496,-0.0664,-0.073,-0.0745,-0.0716,0,0,0,0,0,0,-0.0392,-0.0393,-0.0391,-0.0341,-0.0322,-0.0331,-0.0355,-0.0424,-0.037,-0.0491,-0.0414,-0.056,-0.0462,-0.0551,-0.0434,-0.0443,-0.0539,-0.0522,-0.0521,-0.0721,-0.0735,-0.0748,-0.0723,0,0,0,0,0]},{"header":{"parameterUnit":"m.s-1","parameterCategory":2,"la1":30.2991,"la2":30.254,"lo1":-89.0895,"lo2":-89.0444,"dy":0.0017,"dx":0.0017,"nx":28,"ny":28,"refTime":"2024-08-09T09:00:00:Z","depth":"4","parameterNumber":3,"parameterNumberName":"V-component_of_CURRENTS"},"data":[0,0,0,0,0,0,0,0,0,0,0,0,0,0,0,0,0,0,0,0,0,0,0,0,0,0,0,0,0,0,0,0,0,0,0,0,0,0,0,0,0,0,0,0,0,0,0,0,0,0,0,0,0,0,0,0,0,0,0.035,0.035,0,0.0371,0.0371,0.0372,0.0388,0.0389,0.0389,0.0389,0.0399,0.0399,0.04,0,0,0,0,0,0,0,0,0,0,0,0,0,0.0342,0.0342,0.035,0.035,0.035,0.0371,0.0371,0.0372,0.0388,0.0389,0.0389,0.0389,0.0399,0.0399,0.04,0,0,0,0,0,0,0,0,0,0,0,0,0,0.0352,0.0342,0.035,0.0362,0.0363,0.0371,0.0371,0.0372,0.0388,0.0389,0.0389,0.0389,0.0399,0.0399,0.04,0.0393,0,0,0.04,0.04,0,0,0,0,0,0,0,0,0.0351,0.0352,0.036,0.0361,0.0362,0.0378,0.0373,0.0379,0.0388,0.0378,0.0389,0.039,0.0391,0.0392,0.0395,0.0394,0.0394,0.04,0.04,0.04,0.04,0,0,0,0,0,0,0,0.035,0.0351,0.0357,0.036,0.0362,0.0373,0.0374,0.0374,0.0382,0.0379,0.038,0.0384,0.0392,0.0395,0.0395,0.0394,0.04,0.04,0.04,0.04,0.0397,0.0397,0,0,0,0,0,0,0.0348,0.035,0.0357,0.0358,0.0358,0.0372,0.0374,0.0372,0.0382,0.0384,0.0383,0.0385,0.0394,0.0395,0.0395,0.0398,0.04,0.04,0.04,0.0397,0.0397,0.0397,0,0,0,0,0,0,0.0347,0.0348,0.0356,0.0356,0.0358,0.0372,0.037,0.0372,0.038,0.0386,0.0388,0.0389,0.0395,0.0395,0.0393,0.0398,0.04,0.04,0.0398,0.0397,0.0397,0.0397,0,0,0,0,0,0,0.0347,0.0347,0.0347,0.0355,0.0358,0.0356,0.037,0.0373,0.0382,0.0383,0.0391,0.0392,0.0395,0.0393,0.0393,0.0398,0.04,0.0398,0.0398,0.0397,0.0397,0.0397,0.0396,0,0,0,0,0,0.0346,0.0341,0.0346,0.0347,0.0355,0.0356,0.0358,0.0369,0.0382,0.0379,0.0386,0.0392,0.0392,0.0393,0.0393,0.0398,0.0398,0.0398,0.0397,0.0397,0.0397,0.0396,0,0,0,0,0,0,0.0339,0.0343,0.0349,0.0345,0.0349,0.0359,0.0361,0.0371,0.0375,0.0379,0.0387,0.0388,0.0385,0.0391,0.0392,0.0396,0.0397,0.0397,0.0397,0.0397,0.0397,0.0405,0.04,0,0,0,0,0,0.0336,0.0333,0.0339,0.0338,0.0339,0.0352,0.0356,0.0362,0.0368,0.0371,0.0376,0.0383,0.0383,0.039,0.0384,0.039,0.04,0.0395,0.0394,0.0394,0.0401,0.0418,0.042,0.0396,0.0396,0.0396,0,0,0.0334,0.0336,0.0335,0.0336,0.0342,0.0329,0.0355,0.0358,0.0344,0.037,0.0358,0.0374,0.038,0.0381,0.0382,0.039,0.0404,0.0394,0.0394,0.0401,0.0418,0.042,0.0423,0.0396,0.0396,0.0396,0,0,0.0317,0.0328,0.0314,0.0314,0.0318,0.032,0.0321,0.0329,0.0332,0.0324,0.0341,0.0365,0.0358,0.0376,0.0381,0.0377,0.0392,0.0378,0.0396,0.0412,0.0414,0.0417,0.0424,0.0427,0.039,0.039,0.039,0,0.031,0.0294,0.0311,0.0294,0.0288,0.0313,0.029,0.0293,0.0299,0.0298,0.0314,0.0337,0.0353,0.0368,0.0382,0.0378,0.0389,0.0397,0.0413,0.0415,0.0417,0.0424,0.0428,0.039,0.039,0.039,0.039,0,0.0278,0.0265,0.0259,0.024,0.0236,0.0225,0.0227,0.0225,0.0237,0.0244,0.0261,0.0302,0.0326,0.034,0.0367,0.0399,0.0401,0.0401,0.0415,0.042,0.0427,0.043,0.0389,0.039,0.039,0.039,0,0,0.0254,0.0236,0.0232,0.0213,0.0206,0.0195,0.0175,0.0162,0.0151,0.0185,0.0187,0.0238,0.0293,0.0306,0.0357,0.0397,0.0437,0.0424,0.0425,0.0435,0.0472,0.0377,0.0372,0.0446,0.0446,0.0447,0.0468,0,0.0219,0.0178,0.0175,0.013,0.0109,0.0116,0.009,0.0087,0.0098,0.0106,0.0176,0.0198,0.0268,0.0307,0.0359,0.0408,0.0448,0.0431,0.0464,0.0465,0.0383,0.0373,0.0449,0.047,0.0471,0.0472,0.0472,0,0.018,0.0158,0.0114,0.0072,0.0062,0.0038,0.0011,-0.0005,0.0014,0.0034,0.0095,0.0143,0.0229,0.0284,0.0385,0.0374,0.0434,0.0475,0.0476,0.0392,0.0376,0.0467,0.0479,0.0478,0.0478,0.0477,0.0477,0,0.0157,0.0108,0.0073,0.0061,0.0022,0.0,-0.0017,-0.0022,-0.0036,0.0012,0.002,0.0111,0.0163,0.0254,0.0361,0.0378,0.0452,0.0469,0.0436,0.043,0.0512,0.051,0.0536,0.0536,0.0536,0.0536,0.0536,0,0.0119,0.0086,0.006,0.0042,-0.0014,-0.0022,-0.0068,-0.0069,-0.0062,-0.0078,0.0006,0.0015,0.0163,0.0222,0.0329,0.0381,0.0423,0.0434,0.0426,0.051,0.0507,0.0514,0.0512,0.0537,0.0536,0.0536,0.0536,0,0.0098,0.0084,0.0037,-0.0005,-0.0023,-0.0055,-0.0103,-0.0134,-0.0112,-0.0123,-0.0102,-0.005,0.0,0.012,0.0243,0.031,0.0385,0.0398,0.0467,0.0463,0.0364,0.0361,0.035,0.0347,0.0344,0.0342,0.034,0,0.0081,0.0062,0.0011,-0.0023,-0.0045,-0.0092,-0.0135,-0.0144,-0.0167,-0.0177,-0.0184,-0.0155,-0.011,-0.0002,0.0109,0.0252,0.0285,0.0338,0.0374,0.0349,0.0344,0.0345,0.0346,0.0335,0.0335,0.0334,0.0333,0,0.0049,0.0041,0.0005,-0.0051,-0.0102,-0.0166,-0.0214,-0.0228,-0.0241,-0.0239,-0.0239,-0.0192,-0.0167,-0.0064,0.0038,0.0151,0.031,0.031,0.0318,0.0352,0.0332,0.0329,0.0333,0.0324,0.0325,0.0326,0.0327,0,0.0027,-0.0001,-0.0034,-0.0087,-0.0153,-0.0211,-0.0236,-0.0268,-0.0285,-0.0273,-0.0293,-0.0243,-0.021,-0.0123,-0.0031,0.0057,0.0087,0.0167,0.0183,0.0194,0.0139,0.0089,-0.0006,0,0,0,0,0,0.0003,-0.0024,-0.0074,-0.013,-0.0192,-0.0224,-0.0285,-0.03,-0.0312,-0.0311,-0.0288,-0.0262,-0.0178,-0.0159,-0.0088,-0.0097,0.0093,-0.0014,0.0193,0.0271,0.0282,0.0233,0,0,0,0,0,0,-0.002,-0.0058,-0.0074,-0.0148,-0.0186,-0.0259,-0.0291,-0.0303,-0.0293,-0.0291,-0.0249,-0.0234,-0.0157,-0.0205,-0.008,-0.0066,0.0078,0.002,0.0021,0.0265,0.0275,0.0284,0.0238,0,0,0,0,0]}]]